Flag for Saudi Arabia Weather past 2 weeks in Makkah, Saudi Arabia

Now
79 °F

Sunny.


Feels Like: 80 °F
Forecast: 73 / 100 °F
Wind: No wind

Location: Mecca Airport

Current Time: Feb 27, 2015 at 10:11:49 AM

Latest Report: Feb 27, 2015 at 9:00 AM


Visibility: 10 mi

Pressure: 29.92 "Hg

Humidity: 51%

Dew point: 59 °F

Location of MakkahLocation

Historic Weather in Makkah — Graph

°F

Makkah temperature yesterday

Maximum temperature yesterday: 97 °F (at 2:00 PM)
Minimum temperature yesterday: 75 °F (at 5:00 AM)
Average temperature yesterday: 84 °F

Past Weeks' High & Low Weather Summary

 TemperatureHumidityPressure
High97 °F (Feb 15, 2:00 PM)89% (Feb 18, 5:00 AM)30.04 "Hg (Feb 18, 5:00 AM)
Low61 °F (Feb 21, 7:00 AM)22% (Feb 15, 2:00 PM)29.77 "Hg (Feb 19, 3:00 PM)
Average78 °F56%29.90 "Hg
* Reported Feb 12 9:00 AM — Feb 27 9:00 AM, Makkah, Weather by CustomWeather, © 2015

Note: Actual official high and low records may vary slightly from our data, if they occured in-between our weather recording intervals... More about our weather records

Advertising

Makkah weather history for previous 24 hours

 ConditionsComfort  
Time TempWeatherWind HumidityBarometerVisibility
9:00 AM
Fri, Feb 27
79 °FSunny.No wind51%29.92 "Hg10 mi
8:00 AM75 °FSunny.No wind69%29.89 "Hg10 mi
7:00 AM75 °FSunny.No wind78%29.89 "Hg10 mi
6:00 AM75 °FClear.No wind78%29.86 "Hg10 mi
5:00 AM77 °FClear.No wind79%29.83 "Hg10 mi
4:00 AM77 °FClear.No wind79%29.83 "Hg10 mi
3:00 AM79 °FClear.No wind74%29.83 "Hg10 mi
2:00 AM79 °FClear.No wind74%29.86 "Hg10 mi
1:00 AM79 °FClear.No wind74%29.89 "Hg10 mi
12:00 AM81 °FClear.No wind70%29.89 "Hg10 mi
11:00 PM
Thu, Feb 26
82 °FClear.No wind70%29.89 "Hg10 mi
10:00 PM82 °FClear.No wind66%29.92 "Hg10 mi
9:00 PM82 °FClear.No wind70%29.89 "Hg10 mi
8:00 PM84 °FClear.No wind66%29.89 "Hg10 mi
7:00 PM86 °FClear.No wind62%29.86 "Hg10 mi
6:00 PM90 °FSunny.2 mph55%29.86 "Hg5 mi
5:00 PM93 °FSunny.3 mph49%29.83 "Hg5 mi
4:00 PM97 °FPassing clouds.2 mph39%29.83 "Hg5 mi
3:00 PM97 °FSunny.2 mph39%29.83 "Hg5 mi
2:00 PM97 °FSunny.2 mph42%29.86 "Hg5 mi
1:00 PM95 °FSunny.3 mph44%29.86 "Hg5 mi
12:00 PM93 °FSunny.5 mph44%29.89 "Hg5 mi
11:00 AM91 °FSunny.2 mph49%29.89 "Hg5 mi
10:00 AM86 °FSunny.No wind59%29.92 "Hg10 mi
Weather by CustomWeather, © 2015

See weather overviewHow to use our weather pages